www.pogodaiklimat.ru

ПОГОДА в Поплар Блафф, MO

  • Прогноз погоды в Поплар Блафф
  • Монитор погоды в Поплар Блафф
  • Климат в Поплар Блафф

АРХИВ ПОГОДЫ в Поплар Блафф

Время (UTC), дата Ветер
(напр.,м/с)
 
Видим.   Явления Облачность Т
(С)
Тd
(С)
f
(%)
Тe
(С)
Тes
(С)
Комфортность

P
(гПа)

Po
(гПа)
Тmin
(С)
Tmax
(С)
R
(мм)
SD
(см)
09:53 25.03 СЗ  16 км    2/2 1410 м  +10.6  +9.4  92  +8  +8    1014.7  1002.8         
10:28 25.03 С  16 км    8/8 570 м  +11.1  +9.4  89  +9  +9      1003.1         
10:53 25.03 С  16 км    10/10 690 м  +11.1  +9.4  89  +9  +9    1015.3  1003.1  +10.6  +15.0     
11:13 25.03 СЗ  16 км    8/8 720 м  +10.0  +9.4  96  +8  +8      1003.5         
11:53 25.03 СЗ  16 км    2/2 510 м  +10.6  +9.4  92  +8  +8    1015.9  1003.8         
12:18 25.03 СЗ  16 км    8/8 780 м  +11.1  +10.0  93  +9  +9      1004.1         
12:53 25.03 С  16 км    10/10 630 м  +12.8  +11.1  89  +10  +10    1016.4  1004.5         
13:06 25.03 С  16 км    10/10 630 м  +12.8  +11.1  89  +11  +11      1004.5         
13:53 25.03 С  16 км    8/8 450 м  +13.9  +11.1  83  +12  +12    1016.9  1004.8         
14:25 25.03 С  16 км    5/5 540 м  +15.0  +11.1  77  +13  +14      1005.1         
14:53 25.03 С  7
{12} 
16 км    10/10 660 м  +13.9  +10.6  80  +11  +11    1017.6  1005.5         
15:28 25.03 С  9
{12} 
16 км    10/10 480 м  +12.8  +10.6  86  +9  +9      1006.1         
15:53 25.03 С  16 км    10/10 570 м  +13.3  +10.0  80  +10  +10    1018.6  1006.5         
16:53 25.03 С  16 км    10/10 540 м  +11.7  +8.9  83  +8  +8    1019.6  1007.5  +10.0  +15.0     
17:53 25.03 С  14 км    10/10 660 м  +12.8  +8.9  77  +10  +10    1019.8  1007.8         
18:53 25.03 С  8
{12} 
16 км    10/10 900 м  +13.3  +8.3  72  +10  +10    1019.9  1007.8         
19:08 25.03 С  16 км    10/10 840 м  +13.9  +8.9  72  +11  +11      1007.8         
19:35 25.03 С  7
{12} 
16 км    10/10 840 м  +13.9  +8.9  72  +11  +11      1008.2         
19:53 25.03 С  8
{11} 
16 км    10/10 900 м  +13.3  +8.3  72  +10  +10    1020.4  1008.2         
20:01 25.03 СВ  6
{10} 
16 км    10/10 870 м  +12.8  +7.8  72  +10  +10      1008.5         
20:25 25.03 С  16 км    10/10 930 м  +12.8  +7.8  72  +10  +10      1008.5         
20:53 25.03 С  16 км    10/10 990 м  +12.8  +7.2  69  +10  +10    1021.0  1008.8         
21:53 25.03 С  16 км    10/2 1260 м
[средняя] 
+13.3  +7.2  67  +11  +11    1021.6  1009.5         
22:53 25.03 С  16 км    10/8 1170 м
[средняя] 
+12.2  +6.7  69  +10  +10    1022.5  1010.2  +11.1  +13.9     
23:53 25.03 С  16 км    8/8 1020 м  +10.6  +6.7  77  +8  +8    1023.1  1010.8         
00:53 26.03 С  16 км    ясно  +10.0  +5.6  74  +7  +7    1024.2  1011.8         
01:53 26.03 С  16 км    8/0 2100 м
[средняя] 
+8.9  +5.6  80  +6  +6    1025.1  1012.8         
02:53 26.03 С  16 км    ясно  +7.8  +5.0  82  +5  +5    1025.4  1013.2         
03:53 26.03   14 км    2/2 1230 м  +6.7  +5.0  89  +6  +6    1025.5  1013.2         
04:53 26.03 СЗ  14 км    10/10 1260 м  +7.8  +5.0  82  +5  +5    1026.0  1013.5  +6.7  +12.2     
05:53 26.03 С  13 км    5/5 1320 м  +6.7  +5.0  89  +4  +4    1026.1  1013.8         
06:53 26.03 С  16 км    ясно  +7.2  +4.4  82  +3  +3    1025.7  1013.5         
07:53 26.03 СВ  16 км    ясно  +6.7  +3.9  82  +3  +3    1025.9  1013.5         
08:53 26.03 СВ  16 км    ясно  +5.6  +2.8  82  +2  +2    1026.1  1013.5         
09:53 26.03 С  16 км    ясно  +4.4  +2.8  89  +1  +1    1026.6  1014.2         
10:53 26.03 С  16 км    ясно  +4.4  +2.2  86  +1  +1    1027.4  1014.8  +4.4  +7.8     
11:53 26.03 С  16 км    ясно  +6.1  +2.2  76  +1  +1    1028.1  1015.5         
12:53 26.03 СВ  16 км    ясно  +7.2  +2.2  71  +4  +5    1028.8  1016.2         
13:53 26.03 СВ  16 км    ясно  +7.8  +0.6  60  +3  +4    1029.3  1016.9         
14:53 26.03 СВ  16 км    ясно  +8.9  +1.7  61  +6  +11    1029.8  1017.2         
15:53 26.03 СВ  16 км    ясно  +10.0  +0.6  52  +8  +15    1029.6  1017.2         
16:53 26.03 СВ  16 км    ясно  +11.1  +1.1  50  +9  +16    1029.0  1016.5  +4.4  +11.1     
17:53 26.03 СВ  4
{8} 
16 км    ясно  +11.7  +0.6  46  +10  +20  опасность
простуды 
1028.4  1015.9         
18:53 26.03 В  16 км    ясно  +12.2  +1.1  47  +10  +15    1027.6  1015.2         
19:53 26.03 С  16 км    ясно  +13.3  +1.1  43  +12  +21    1027.4  1015.2         
20:53 26.03 СВ  16 км    ясно  +13.9  -0.6  37  +13  +17    1026.9  1014.5         
21:53 26.03 В  16 км    ясно  +13.3  -0.6  38  +12  +14    1027.1  1014.5         
22:53 26.03 В  16 км    ясно  +11.7  -0.6  43  +10  +11    1027.2  1014.8  +11.1  +13.9     

 

Местоположение метеостанции Poplar Bluff Municipal Airport: широта 36.7706 долгота -90.3222 высота над уровнем моря 100 м.

В архиве по умолчанию представлена погода в Поплар Блафф за последние 1-2 суток. Обновление информации о фактической погоде в базе происходит ежечасно! Архивные данные за месяц целиком и за предыдущие месяцы Вы можете получить, выбрав интересующий диапазон дат из раскрывающегося списка и нажав кнопку "Ввод!".

Внимание! Архив погоды МЕТАР в базе сайта хранится не более 60 дней. Нет смысла пытаться выбрать более раннюю дату.

Внимание! Время в таблицах - всемирное. Для получения местного времени необходимо прибавить поправку, которая в Поплар Блафф равна -6 ч.

Ветер - указаны скорость ветра в м/с и направление, откуда дует ветер: С - северный, СВ - северо-восточный, В - восточный, ЮВ - юго-восточный, Ю - южный, ЮЗ - юго-западный, З - западный, СЗ - северо-западный.
Видимость - горизонтальная дальность видимости в метрах или километрах. При видимости от 1 до 10 км при отсутствии осадков обычно наблюдается дымка, при ухудшении видимости до 1 км и менее - туман. В сухую погоду видимость может ухудшаться дымом, пылью или мглою.
Атмосферные явления - указаны явления, наблюдавшиеся в указанный момент времени.
Облачность - указаны через наклонную черту верхняя и нижняя облачность в баллах и высота нижней границы облаков в метрах. Внимание: облачность, как и прочие метеорологические величины в США измеряются автоматическими метеостанциями. Указанные значения в баллах носят условный характер и показывают процент времени, в течение которого, в среднем, лазерный луч высотомера отражался от облаков обратно.
T - Температура воздуха - температура, измеренная на высоте 2 м над землей.
Td - Температура точки росы - температура, при понижении до которой содержащийся в воздухе водяной пар достигнет насыщения.
f - Относительная влажность воздуха - влажноcть воздуха, измеренная на высоте 2 м над землей.
Te - Эффективная температура - температура, которую ощущает одетый по сезону человек в тени. Характеристика душности погоды. При расчете учитывается влияние влажности воздуха и скорости ветра на теплоощущения человека.
Tes - Эффективная температура на солнце - температура, которую ощущает человек, с поправкой на солнечный нагрев. Характеристика знойности погоды. Зависит от высоты солнца над горизонтом, облачности и скорости ветра. Ночью, в пасмурную погоду, а также при ветре 12 м/с и более поправка равна нулю.
P - Атмосферное давление - приведенное к уровню моря атмосферное давление.
Po - Атмосферное давление - измеренное на уровне метеостанции атмосферное давление.
Tmin - Минимальная температура - минимум температуры воздуха на высоте 2 м над землей.
Tmax - Максимальная температура - максимум температуры воздуха на высоте 2 м над землей.
R - Количество осадков - Количество выпавших осадков за 3 или 6 часов, мм.
SD - Снежный покров - Высота снежного покрова, см.